191P/McNaught (2001)

Japanese version
Home page
Updated on September 17, 2007

---------------------------------------------------------------------

* Profile

Designation 191P/2000 P3
Discovery Date August 5 and 21, 2000
Magnitude 17.3 mag, 17.0 mag
Discoverer NEAT, LONEOS

* Orbital Elements

Epoch 2001 Jan. 11.0 TT = JDT 2451920.5
T 2001 Jan. 12.75938 TT                                 MPC
q   2.0898247            (2000.0)            P               Q
n   0.14696718     Peri.  274.01845     +0.92265818     -0.35719606
a   3.5562242      Node   106.95737     +0.38561354     +0.85266513
e   0.4123473      Incl.    8.73747     +0.00202122     +0.38127832
P   6.71

* Magnitudes Graph

        m1 = 13.0 + 5 log d + 10.0 log r

---------------------------------------------------------------------

The orbital elements are published on M.P.E.C. 2007-R04.
The magnitudes graphs are made with Comet for Windows.

---------------------------------------------------------------------

Copyright(C) Seiichi Yoshida (comet@aerith.net). All rights reserved.